STARLINK-11525, 62566

Orbit data source: Space-Track

STARLINK-11525, 62566 is a payload satellite owned by SpaceX/Seattle (US) in LEO that was launched on Fri, 10 Jan 2025 UTC via an FALCON 9 launch vehicle from the Air Force Eastern Test Range (AFETR). Payload-class satellites include a variety of spacecraft equipped with specific instruments for various scientific and technological missions. These include communications satellites like Starlink; space stations such as the ISS; scientific satellites like the Hubble; Earth observation satellites from companies like Planet Labs, Umbra, and HawkEye 360; GPS; miniature CubeSats for education and research; and military/defense satellites.

Loading next visibility...
Identifier
62566, 2025-006N
Orbit
LEO
Country
Flag of USUS
Related business
Manufacturer
SpaceX/Seattle
Mission
Operational Commercial Communications
Bus & Motor
STARLINK V2MD, Unknown motor
Mass
960 kg wet, ~910 kg dry
Launch date (UTC)
2025-01-10 (1 year ago)
Launch vehicle
FALCON 9
Launch site
Air Force Eastern Test Range (AFETR)
Object type
Payload
Rocket body
Debris
Shape & HBR
Box + 2 Pan, 18.1 m
Radar Cross Section
36.964 m², Large (>1 m²)

Expand to show TLE details & history
Last TLE update: 9 hours ago

TLE from 9 hours ago
0 STARLINK-11525
1 62566U 25006N   26171.48076006  .00016228  00000-0  12985-3 0  9993
2 62566  43.0004 240.7624 0001264 282.7964  77.2763 15.70815170 82764
Epoch: 2026-06-20T11:32Z
TLE epoch observation values (Epoch: 2026-06-20T11:32:17.669Z)
Latitude
0.00004°
Longitude
158.99405°
Altitude
356.15 km
Speed
7.697 km/s
True Right ascension
16h 03m 02s
True Declination
0° 00' 00"
Sunlit
Object was in full shadow at epoch
Visualization orbit readout
Latitude
Unknown
Longitude
Unknown
Altitude
Unknown
Speed
Unknown
Apparent Right ascension
Unknown
Apparent Declination
Unknown
Sunlit
N/A
Visualization observer readout
Local Sidereal Time
07:24:09
Azimuth
Unknown
Elevation
Unknown
Doppler factor
Unknown
Orbital elements
Apogee altitude
359.399 km
Perigee altitude
357.696 km
Semi-major axis
6,736.685 km
Eccentricity
0.00013
Inclination
43.0004°
RAAN
240.7624°
Arg. of periapsis
282.7964°
True anomaly
77.29043°
Mean anomaly
77.2763°
Eccentric anomaly
77.28336°
Mean motion
3.92531 °/min
Orbital period
91.71 mins
BSTAR
0.00012985
Loading maneuver chart data...
Computing Atmospheric mass density...
Loading historical data...
Loading historical data...
Loading historical data...
Loading historical data...
Loading historical data...
Loading historical data...
Loading historical data...

Documentation

Showing up to 5 results
|